Location: Newark
(33.6333°S, 78.8500°W)
Time: 08:40:46
(UTC+00:00)

Tiros 1 despin weight - Pass Details

Date: 23 September 2019
Orbit: 593 x 643 km, 48.2° (Epoch: 19 October)

Event Time Altitude Azimuth Distance (km) Brightness Sun altitude
Rises 10:54:27 0° 233° (SW) 2,954 ? -2.8°
Reaches altitude 10° 10:56:47 10° 234° (SW) 2,045 ? -2.3°
Maximum altitude 11:01:31 79° 319° (NW) 661 ? -1.3°
Drops below altitude 10° 11:06:13 10° 46° (NE) 2,034 ? -0.3°
Sets 11:08:32 0° 47° (NE) 2,937 ? 0.2°
